Tracking 17560 objects as of 11-February-2016
HD Live streaming from Space Station
objects crossing your sky now

SL-8 DEB

Track SL-8 DEB now!
10-day predictions


NORAD ID: 18545
Int'l Code: 1986-100C
Perigee: 882.9 km
Apogee: 906.8 km
Inclination: 82.9 °
Period: 102.7 minutes
Semi major axis: 7265 km
RCS: 0.0131 m2 (small)
Launch date: December 17, 1986
Source: Commonwealth of Independent States (former USSR) (CIS)
Launch site: PLESETSK MISSILE AND SPACE COMPLEX (PKMTR)

Note: This is SATELLITE DEBRIS
Your satellite tracking list
Your tracking list is empty





NASA's NSSDC Master Catalog

Two Line Element Set (TLE):
1 18545U 86100C   16040.44018409 +.00001088 +00000-0 +70595-3 0  9995
2 18545 082.9274 204.2800 0016471 140.1170 249.4601 14.0175592047463
Source of the keplerian elements: AFSPC

N2YO: 464